Home   Weather   Saint John's   Past weeks
Flag for Antigua and Barbuda

Past Weather in Saint John's, Antigua and Barbuda — Yesterday and Last 2 Weeks

Now
81 °F

Passing clouds.


Feels Like: 85 °F
Forecast: N/A
Wind: 10 mph from East

Location: Vc Bird International Antigua Airport

Current Time: Jun 17, 2019 at 7:37:41 pm

Latest Report: Jun 17, 2019 at 7:00 pm


Visibility: N/A

Pressure: 30.07 "Hg

Humidity: 79%

Dew Point: 73 °F

Location of Saint John'sLocation

Past Weather in Saint John's — Graph

°F

Saint John's Temperature Yesterday

Maximum temperature yesterday: 84 °F (at 11:00 am)
Minimum temperature yesterday: 81 °F (at 12:00 am)
Average temperature yesterday: 82 °F

High & Low Weather Summary for the Past Weeks

 TemperatureHumidityPressure
High86 °F (Jun 4, 2:00 pm)89% (Jun 2, 8:00 pm)30.09 "Hg (Jun 2, 8:00 pm)
Low77 °F (Jun 2, 8:00 pm)66% (Jun 6, 2:00 pm)29.95 "Hg (Jun 2, 6:00 pm)
Average81 °F77%30.03 "Hg
* Reported Jun 2 6:00 pm — Jun 17 6:00 pm, Saint John's. Weather by CustomWeather, © 2019

Note: Actual official high and low records may vary slightly from our data, if they occured in-between our weather recording intervals... More about our weather records

Advertising

Saint John's Weather History for the Previous 24 Hours

Scroll right to see more
 ConditionsComfort  
Time TempWeatherWind HumidityBarometerVisibility
6:00 pm
Mon, Jun 17
82 °FScattered clouds.12 mph79%30.07 "HgN/A
5:00 pm82 °FPassing clouds.12 mph79%30.07 "HgN/A
4:00 pm82 °FScattered clouds.13 mph74%30.07 "HgN/A
3:00 pm84 °FPassing clouds.13 mph74%30.07 "HgN/A
2:00 pm84 °FScattered clouds.14 mph70%30.07 "HgN/A
1:00 pm86 °FScattered clouds.14 mph70%30.09 "HgN/A
12:00 pm84 °FScattered clouds.14 mph74%30.09 "HgN/A
11:00 am86 °FScattered clouds.10 mph70%30.09 "HgN/A
10:00 am84 °FPartly sunny.13 mph70%30.09 "HgN/A
9:00 am84 °FScattered clouds.12 mph74%30.07 "HgN/A
8:00 am82 °FScattered clouds.10 mph79%30.07 "HgN/A
6:00 am81 °FPassing clouds.8 mph79%30.04 "HgN/A
5:00 am81 °FPassing clouds.9 mph79%30.04 "HgN/A
4:00 am81 °FPassing clouds.10 mph79%30.04 "HgN/A
3:00 am81 °FPassing clouds.10 mph79%30.04 "HgN/A
2:00 am81 °FPassing clouds.10 mph79%30.04 "HgN/A
1:00 am81 °FPassing clouds.10 mph79%30.04 "HgN/A
12:00 am81 °FPassing clouds.9 mph79%30.07 "HgN/A
11:00 pm
Sun, Jun 16
81 °FPassing clouds.9 mph84%30.07 "HgN/A
10:00 pm81 °FPassing clouds.9 mph84%30.09 "HgN/A
9:00 pm81 °FPassing clouds.9 mph84%30.07 "HgN/A
8:00 pm81 °FPassing clouds.10 mph84%30.04 "HgN/A
7:00 pm81 °FPassing clouds.12 mph79%30.04 "HgN/A
Weather by CustomWeather, © 2019

See weather overview